Location: Baili�vre
(50.0696°N, 4.2409°E)
Time: 06:29:58
(UTC+00:00)

Resurs 01 Rocket - Pass Details

Date: 08 August 2020
Orbit: 634 x 644 km, 98.0° (Epoch: 23 September)

Event Time Altitude Azimuth Distance (km) Brightness Sun altitude
Exits shadow 21:05:07 - 200° (SSW) 2,602 4.5 -15.0°
Reaches altitude 10° 21:06:46 10° 210° (SSW) 2,024 4.0 -15.1°
Maximum altitude 21:10:26 25° 266° (W) 1,280 3.6 -15.5°
Drops below altitude 10° 21:14:08 10° 323° (NW) 2,043 5.6 -15.9°
Sets 21:16:41 0° 337° (NNW) 2,959 6.6 -16.1°
